Regional Weather Roundup
Issued by NWS Goodland, KS

Home | Current Version | Previous Version | Graphics & Text | Print | Product List | Glossary On
Versions: 1 2 3 4 5 6 7 8 9 10 11 12 13 14 15 16 17 18 19 20 21 22 23 24 25 26 27 28 29 30 31 32 33 34 35 36 37 38 39 40 41 42 43 44 45 46 47 48 49 50
518
ASUS43 KGLD 280408
RWRGLD

GOODLAND FORECAST AREA HOURLY WEATHER ROUNDUP
NATIONAL WEATHER SERVICE GOODLAND KS
1000 PM MDT SAT AUG 27 2016

...OFFICIAL OBSERVATIONS...

CITY           SKY/WX    TMP DP  RH WIND       PRES   REMARKS
GOODLAND KS    CLEAR     66  59  78 S10       30.06R
HILL CITY KS   CLOUDY    71  65  81 E6        30.04R
IMPERIAL NEB   CLEAR     68  62  81 SE10      30.05R
MCCOOK NEB     CLOUDY    71  65  81 E8        30.03R
AKRON CO       CLEAR     62  45  53 SE12      30.11R
BURLINGTON CO  CLEAR     63  54  72 S13       30.09R
LIMON CO       CLEAR     58  51  78 SE7       30.16R
$$

...UNOFFICIAL OBSERVATIONS...

CITY           SKY/WX    TMP DP  RH WIND       PRES   REMARKS
COLBY KS       CLEAR     75  64  69 S9        30.06R
LENORA KS        N/A     71  32  23 MISG        N/A
NORTON KS      CLEAR     73  64  73 E7        30.03
SHARON SPRINGS   N/A     66  62  86 S12         N/A
TRIBUNE KS     CLOUDY    68  61  77 SE9       30.09F
TRENTON NEB      N/A     69  32  25 MISG        N/A
KIT CARSON CO    N/A     69  54  58 MISG        N/A
YUMA CO          N/A     61  53  73 SW5         N/A
$$




USA.gov is the U.S. government's official web portal to all federal, state and local government web resources and services.